Location: Sungai Liu
(2.3667°N, 113.8667°E)
Time: 12:07:40
(UTC+00:00)

Cosmos 2056 Rocket - Pass Details

Date: 20 May 2022
Orbit: 741 x 801 km, 74.0° (Epoch: 04 July)

Event Time Altitude Azimuth Distance (km) Brightness Sun altitude
Exits shadow 20:26:12 43° 330° (NNW) 1,029 4.0 -25.9°
Drops below altitude 10° 20:29:56 10° 360° (N) 2,252 6.2 -25.0°
Sets 20:32:20 0° 4° (N) 3,180 7.1 -24.5°
